weather.gov     
National Weather Service

Terminal Aerodrome Forecast
NWS Homepage
This page is being discontinued on March 12, 2014.
The same data is available at this site. Please update your bookmarks.
Thank you, and we apologize for the inconvenience.
Please send an email to SR-SRH.Webmaster@noaa.gov with any concerns.


Current Version
Previous Version:    01  02  03  04  05  06  07  08  09  10  11  12  13  14  15  16  17  18  19  20  21  22  23  24  25  26  27  28  29  30  
   31  32  33  34  35  36  37  38  39  
[Printable]
125
FTUS43 KDTX 290500
TAFDET
TAF
KDET 290530Z 2906/3006 30005KT P6SM SCT050
     FM291500 28010KT P6SM BKN050 BKN120
     FM291800 28012G16KT P6SM SCT035 BKN045 PROB30 2919/2922 5SM
      -SHRA BKN040
     FM300000 27009KT P6SM SCT040 BKN080
     FM300200 26004KT P6SM SCT080 BKN120=


U.S. Dept. of Commerce
NOAA National Weather Service
1325 East West Highway
Silver Spring, MD 20910
E-mail: w-nws.webmaster@noaa.gov
Page last modified: May 16, 2007
NATIONAL WEATHER SERVICE: for Safety, for Work, for Fun - FOR LIFE